カタログに戻る

SL-24 DEB

運用中SSO
NORAD 39450·DEBRIS·🇷🇺 Russia

打ち上げ Nov 21, 2013 から Dombarovsky

Loading…

次のパス (今後24時間)

TLE

最新Source: Space-Track

元期: Sep 14, 2026, 11:18 UTC

1 39450U 13066AL  26257.47110855  .00011638  00000-0  38022-3 0  9997
2 39450  97.3961 263.5194 0004266 346.8427  13.2702 15.31890488701268

AllMySatでSL-24 DEBをリアルタイム追跡

Download on the App Store